{"data":{"norad_id":58960,"intl_designator":"2024-028F","name":"HBTSS-SV1","alt_names":[],"object_type":"PAYLOAD","status":"ACTIVE","operator":null,"country":"US","launch_date":"2024-02-14","launch_site_code":"AFETR","launch_vehicle":null,"mission":null,"orbit_class":"UNKNOWN","rcs_meters":null,"size_class":null,"mass_kg":null,"dimensions":null,"purposes":[],"wikipedia_slug":null,"has_3d_model":false,"image_url":null,"decayed_at":null,"tle_current":{"epoch":"2026-09-22T08:11:48.719040Z","epoch_age_seconds":93206,"freshness":"FRESH","line1":"1 58960U 24028F   26265.34153610  .00003297  00000+0  24633-3 0  9999","line2":"2 58960  39.9895 289.6919 0009786 172.8081 187.2855 15.03784947121776","mean_motion":15.03784947,"eccentricity":0.0009786,"inclination_deg":39.9895,"raan_deg":289.6919,"arg_perigee_deg":172.8081,"mean_anomaly_deg":187.2855,"bstar":0.00024633,"rev_number":12177,"period_min":95.758373088702,"perigee_km":548.45293039145,"apogee_km":562.0229318066,"semimajor_km":6933.374931099,"source":"CELESTRAK","updated_at":"2026-09-23T09:00:19.083173Z"}}}